Location: Oberwangen
(47.4286°N, 8.9679°E)
Time: 15:33:32
(UTC+00:00)

USA 229 - Pass Details

Date: 20 June 2021
Orbit: 956 x 1256 km, 63.5° (Epoch: 25 July)

Event Time Altitude Azimuth Distance (km) Brightness Sun altitude
Exits shadow 23:38:44 31° 195° (SSW) 1,661 4.2 -19.1°
Maximum altitude 23:41:53 66° 124° (ESE) 1,107 3.6 -19.0°
Drops below altitude 10° 23:48:38 10° 44° (NE) 2,911 6.7 -18.9°
Sets 23:51:24 0° 42° (NE) 3,916 7.6 -18.9°
